• In Uzbekistan
  • List of Countries
  • For 7 days
  • Water Temperature
  • Satellite Maps
  • Weather Map
  • Weather Widgets
  • user-avatar
    Login

    Hourly Weather Bafoussam

    Today, 12 December, Wednesday

    Time Temperature Precipitation Wind Pressure Humidity
    00:00 +19°C° 0 mm 1 mps 645 mmHg 67%
    01:00 +18°C° 0 mm 1 mps 645 mmHg 63%
    02:00 +18°C° 0 mm 1 mps 645 mmHg 62%
    03:00 +18°C° 0 mm 1 mps 645 mmHg 60%
    04:00 +18°C° 0 mm 1 mps 645 mmHg 58%
    05:00 +18°C° 0 mm 1 mps 645 mmHg 57%
    06:00 +18°C° 0 mm 1 mps 645 mmHg 56%
    07:00 +19°C° 0 mm 1 mps 646 mmHg 55%
    08:00 +21°C° 0 mm 1 mps 646 mmHg 47%
    09:00 +24°C° 0 mm 2 mps 647 mmHg 40%
    10:00 +26°C° 0 mm 2 mps 648 mmHg 32%
    11:00 +28°C° 0 mm 2 mps 648 mmHg 29%
    12:00 +29°C° 0 mm 2 mps 648 mmHg 27%
    13:00 +29°C° 0 mm 2 mps 647 mmHg 25%
    14:00 +29°C° 0 mm 2 mps 647 mmHg 25%
    15:00 +29°C° 0 mm 2 mps 646 mmHg 25%
    16:00 +29°C° 0 mm 2 mps 646 mmHg 25%
    17:00 +26°C° 0 mm 1 mps 646 mmHg 30%
    18:00 +24°C° 0 mm 1 mps 645 mmHg 36%
    19:00 +19°C° 0 mm 0 mps 645 mmHg 41%
    20:00 +19°C° 0 mm 0 mps 645 mmHg 44%
    21:00 +20°C° 0 mm 1 mps 645 mmHg 46%
    22:00 +20°C° 0 mm 1 mps 646 mmHg 49%
    23:00 +19°C° 0 mm 1 mps 646 mmHg 50%

    Tomorrow, 13 December, Thursday

    Time Temperature Precipitation Wind Pressure Humidity
    00:00 +19°C° 0 mm 1 mps 645 mmHg 51%
    01:00 +18°C° 0 mm 1 mps 645 mmHg 51%
    02:00 +18°C° 0 mm 1 mps 645 mmHg 50%
    03:00 +18°C° 0 mm 1 mps 645 mmHg 49%
    04:00 +16°C° 0 mm 1 mps 644 mmHg 48%
    05:00 +18°C° 0 mm 1 mps 645 mmHg 47%
    06:00 +18°C° 0 mm 1 mps 645 mmHg 47%
    07:00 +18°C° 0 mm 1 mps 645 mmHg 47%
    08:00 +21°C° 0 mm 1 mps 647 mmHg 40%
    09:00 +24°C° 0 mm 1 mps 648 mmHg 33%
    10:00 +28°C° 0 mm 2 mps 649 mmHg 26%
    11:00 +29°C° 0 mm 2 mps 649 mmHg 25%
    12:00 +29°C° 0 mm 2 mps 648 mmHg 24%
    13:00 +30°C° 0 mm 3 mps 648 mmHg 23%
    14:00 +30°C° 0 mm 2 mps 647 mmHg 23%
    15:00 +30°C° 0 mm 2 mps 646 mmHg 24%
    16:00 +30°C° 0 mm 2 mps 646 mmHg 25%
    17:00 +27°C° 0 mm 1 mps 646 mmHg 30%
    18:00 +25°C° 0 mm 1 mps 645 mmHg 36%
    19:00 +20°C° 0 mm 0 mps 645 mmHg 41%
    20:00 +22°C° 0 mm 1 mps 645 mmHg 44%
    21:00 +21°C° 0 mm 1 mps 646 mmHg 47%
    22:00 +20°C° 0 mm 1 mps 646 mmHg 50%
    23:00 +20°C° 0 mm 1 mps 646 mmHg 50%

    Day after tomorrow, 14 December, Friday

    Time Temperature Precipitation Wind Pressure Humidity
    00:00 +19°C° 0 mm 1 mps 646 mmHg 50%
    01:00 +19°C° 0 mm 1 mps 646 mmHg 50%
    02:00 +19°C° 0 mm 1 mps 645 mmHg 48%
    03:00 +18°C° 0 mm 1 mps 645 mmHg 46%
    04:00 +18°C° 0 mm 1 mps 645 mmHg 45%
    05:00 +18°C° 0 mm 1 mps 645 mmHg 44%
    06:00 +18°C° 0 mm 1 mps 645 mmHg 44%
    07:00 +18°C° 0 mm 1 mps 646 mmHg 43%
    08:00 +22°C° 0 mm 1 mps 647 mmHg 37%
    09:00 +25°C° 0 mm 2 mps 648 mmHg 31%
    10:00 +28°C° 0 mm 2 mps 649 mmHg 25%
    11:00 +29°C° 0 mm 2 mps 649 mmHg 23%
    12:00 +30°C° 0 mm 2 mps 648 mmHg 22%
    13:00 +31°C° 0 mm 3 mps 648 mmHg 21%
    14:00 +31°C° 0 mm 2 mps 647 mmHg 21%
    15:00 +31°C° 0 mm 2 mps 647 mmHg 21%
    16:00 +30°C° 0 mm 2 mps 646 mmHg 22%
    17:00 +28°C° 0 mm 2 mps 646 mmHg 28%
    18:00 +25°C° 0 mm 1 mps 645 mmHg 34%
    19:00 +23°C° 0 mm 1 mps 645 mmHg 39%
    20:00 +22°C° 0 mm 1 mps 645 mmHg 45%
    21:00 +21°C° 0 mm 1 mps 646 mmHg 52%
    22:00 +20°C° 0 mm 1 mps 646 mmHg 58%
    23:00 +20°C° 0 mm 1 mps 646 mmHg 59%

    15 December, Saturday

    Time Temperature Precipitation Wind Pressure Humidity
    00:00 +20°C° 0 mm 1 mps 645 mmHg 59%
    01:00 +19°C° 0 mm 1 mps 645 mmHg 60%
    02:00 +19°C° 0 mm 1 mps 645 mmHg 57%
    03:00 +19°C° 0 mm 1 mps 644 mmHg 53%
    04:00 +19°C° 0 mm 1 mps 644 mmHg 49%
    05:00 +19°C° 0 mm 1 mps 645 mmHg 47%
    06:00 +19°C° 0 mm 1 mps 645 mmHg 46%
    07:00 +19°C° 0 mm 1 mps 646 mmHg 44%
    08:00 +22°C° 0 mm 1 mps 647 mmHg 38%
    09:00 +25°C° 0 mm 1 mps 648 mmHg 32%
    10:00 +28°C° 0 mm 1 mps 649 mmHg 27%
    11:00 +29°C° 0 mm 2 mps 649 mmHg 24%
    12:00 +30°C° 0 mm 2 mps 648 mmHg 22%
    13:00 +31°C° 0 mm 2 mps 648 mmHg 20%
    14:00 +31°C° 0 mm 2 mps 647 mmHg 21%
    15:00 +31°C° 0 mm 2 mps 646 mmHg 22%
    16:00 +31°C° 0 mm 2 mps 646 mmHg 23%
    17:00 +28°C° 0 mm 2 mps 646 mmHg 30%
    18:00 +25°C° 0 mm 2 mps 645 mmHg 38%
    19:00 +23°C° 0 mm 1 mps 645 mmHg 46%
    20:00 +22°C° 0 mm 1 mps 645 mmHg 53%
    21:00 +21°C° 0 mm 1 mps 645 mmHg 60%
    22:00 +20°C° 0 mm 1 mps 646 mmHg 67%
    23:00 +20°C° 0 mm 1 mps 645 mmHg 67%

    16 December, Sunday

    Time Temperature Precipitation Wind Pressure Humidity
    00:00 +19°C° 0 mm 1 mps 645 mmHg 66%
    01:00 +19°C° 0 mm 1 mps 645 mmHg 66%
    02:00 +19°C° 0 mm 1 mps 644 mmHg 61%
    03:00 +18°C° 0 mm 1 mps 644 mmHg 57%
    04:00 +18°C° 0 mm 1 mps 644 mmHg 52%
    05:00 +18°C° 0 mm 1 mps 644 mmHg 50%
    06:00 +18°C° 0 mm 1 mps 645 mmHg 47%
    07:00 +18°C° 0 mm 1 mps 645 mmHg 44%
    08:00 +21°C° 0 mm 1 mps 646 mmHg 38%
    09:00 +25°C° 0 mm 1 mps 648 mmHg 31%
    10:00 +28°C° 0 mm 1 mps 649 mmHg 25%
    11:00 +29°C° 0 mm 1 mps 649 mmHg 23%
    12:00 +30°C° 0 mm 2 mps 648 mmHg 21%
    13:00 +31°C° 0 mm 2 mps 648 mmHg 19%
    14:00 +31°C° 0 mm 2 mps 647 mmHg 20%
    15:00 +31°C° 0 mm 2 mps 646 mmHg 21%
    16:00 +30°C° 0 mm 2 mps 646 mmHg 22%
    17:00 +28°C° 0 mm 2 mps 645 mmHg 30%
    18:00 +25°C° 0 mm 1 mps 645 mmHg 37%
    19:00 +23°C° 0 mm 1 mps 645 mmHg 45%
    20:00 +22°C° 0 mm 1 mps 645 mmHg 52%
    21:00 +21°C° 0 mm 1 mps 645 mmHg 59%
    22:00 +20°C° 0 mm 1 mps 646 mmHg 67%
    23:00 +20°C° 0 mm 1 mps 645 mmHg 67%

    17 December, Monday

    Time Temperature Precipitation Wind Pressure Humidity
    00:00 +19°C° 0 mm 1 mps 645 mmHg 68%
    01:00 +19°C° 0 mm 1 mps 645 mmHg 68%
    02:00 +18°C° 0 mm 1 mps 644 mmHg 65%
    03:00 +18°C° 0 mm 1 mps 644 mmHg 63%
    04:00 +18°C° 0 mm 1 mps 644 mmHg 60%
    05:00 +18°C° 0 mm 1 mps 645 mmHg 58%
    06:00 +18°C° 0 mm 1 mps 645 mmHg 56%
    07:00 +18°C° 0 mm 1 mps 645 mmHg 55%
    08:00 +21°C° 0 mm 1 mps 647 mmHg 46%
    09:00 +24°C° 0 mm 1 mps 648 mmHg 38%
    10:00 +27°C° 0 mm 1 mps 649 mmHg 30%
    11:00 +28°C° 0 mm 1 mps 648 mmHg 27%
    12:00 +30°C° 0 mm 1 mps 648 mmHg 25%
    13:00 +31°C° 0 mm 2 mps 648 mmHg 22%
    14:00 +30°C° 0 mm 2 mps 647 mmHg 23%
    15:00 +30°C° 0 mm 2 mps 646 mmHg 24%
    16:00 +29°C° 0 mm 2 mps 646 mmHg 25%
    17:00 +27°C° 0 mm 1 mps 645 mmHg 32%
    18:00 +25°C° 0 mm 1 mps 645 mmHg 40%
    19:00 +22°C° 0 mm 1 mps 645 mmHg 47%
    20:00 +21°C° 0 mm 1 mps 645 mmHg 53%
    21:00 +21°C° 0 mm 1 mps 645 mmHg 58%
    22:00 +20°C° 0 mm 1 mps 645 mmHg 64%
    23:00 +19°C° 0 mm 1 mps 645 mmHg 64%
    Show more